Terminal Aerodrome Forecast
Issued by NWS Memphis, TN

Home | Current Version | Previous Version | Text Only | Print | Product List | Glossary On
Versions: 1 2 3 4 5 6 7 8 9 10 11 12 13 14 15 16 17 18 19 20 21 22 23 24 25 26 27 28 29 30 31 32
000
FTUS44 KMEG 261452 AAB
TAFMEM
TAF AMD
KMEM 261452Z 2615/2712 19010KT P6SM BKN017 BKN060
     FM261700 19010KT P6SM SCT025 BKN040
     FM262100 18010KT P6SM VCTS SCT040CB BKN250
     FM270100 18008KT P6SM VCTS SCT040CB BKN250=

USA.gov is the U.S. government's official web portal to all federal, state and local government web resources and services.